QPF
0.00 0.00 0.00 0.00 0.00 0.00 0.00 0.00 0.00 0.00 0.00 0.00 0.00 0.00 0.00 0.00 0.00 0.00 0.00 0.00 0.00 0.00 0.00 0.00 0.00 0.00 0.00 0.00 0.00 0.00 0.00 0.00 0.00 0.00 0.00 0.00 0.00 0.00 0.00 0.00 0.00 0.00 0.00 0.00
0.00 0.00 0.00 0.00 0.00 0.00 0.00 0.00 0.00 0.00 0.00 0.00 0.00 0.00 0.00 0.00 0.00 0.00 0.00 0.00 0.00 0.00 0.00 0.00 0.00 0.00 0.00 0.00 0.00 0.00 0.00 0.00 0.00 0.00 0.00 0.00 0.00 0.00 0.00 0.00 0.00 0.00 0.00 0.00
0.00 0.00 0.00 0.00 0.00 0.00 0.00 0.00 0.00 0.00 0.00 0.00 0.00 0.00 0.00 0.00 0.00 0.00 0.00 0.00 0.00 0.00 0.00 0.00 0.00 0.00 0.00 0.00 0.00 0.00 0.00 0.00 0.00 0.00 0.00 0.00 0.00 0.00 0.00 0.01 0.01 0.01 0.00 0.00
0.00 0.00 0.00 0.00 0.00 0.00 0.00 0.00 0.00 0.00 0.00 0.00 0.00 0.00 0.00 0.00 0.00 0.00 0.00 0.00 0.00 0.00 0.00 0.00 0.00 0.00 0.00 0.00 0.00 0.00 0.00 0.00 0.00 0.00 0.00 0.00 0.00 0.00 0.00 0.01 0.01 0.01 0.01 0.01
0.00 0.00 0.00 0.00 0.00 0.00 0.00 0.00 0.00 0.00 0.00 0.00 0.00 0.00 0.00 0.00 0.00 0.00 0.00 0.00 0.00 0.00 0.00 0.00 0.00 0.00 0.00 0.00 0.00 0.00 0.00 0.00 0.00 0.00 0.00 0.00 0.00 0.00 0.00 0.00 0.01 0.01 0.01 0.01
0.00 0.00 0.00 0.00 0.00 0.00 0.00 0.00 0.00 0.00 0.00 0.00 0.00 0.00 0.00 0.00 0.00 0.00 0.00 0.00 0.00 0.00 0.00 0.00 0.00 0.00 0.00 0.00 0.00 0.00 0.00 0.00 0.00 0.00 0.00 0.00 0.00 0.00 0.00 0.00 0.00 0.00 0.00 0.01
0.00 0.00 0.00 0.00 0.00 0.00 0.00 0.00 0.00 0.00 0.00 0.00 0.00 0.00 0.00 0.00 0.00 0.00 0.00 0.00 0.00 0.00 0.00 0.00 0.00 0.00 0.00 0.00 0.00 0.00 0.00 0.00 0.00 0.00 0.00 0.00 0.00 0.00 0.00 0.00 0.00 0.00 0.00 0.00
0.00 0.00 0.00 0.00 0.00 0.00 0.00 0.00 0.00 0.00 0.00 0.00 0.00 0.00 0.00 0.00 0.00 0.00 0.00 0.00 0.00 0.00 0.00 0.00 0.00 0.00 0.00 0.00 0.00 0.00 0.00 0.00 0.00 0.00 0.00 0.00 0.00 0.00 0.00 0.00 0.00 0.00 0.00 0.00
0.00 0.00 0.00 0.00 0.00 0.00 0.00 0.00 0.00 0.00 0.00 0.00 0.00 0.00 0.00 0.00 0.00 0.00 0.00 0.00 0.00 0.00 0.00 0.00 0.00 0.00 0.00 0.00 0.00 0.00 0.00 0.00 0.00 0.00 0.00 0.00 0.00 0.00 0.00 0.00 0.00 0.00 0.00 0.00
0.00 0.00 0.00 0.00 0.00 0.00 0.00 0.00 0.00 0.00 0.00 0.00 0.00 0.00 0.00 0.00 0.00 0.00 0.00 0.00 0.00 0.00 0.00 0.00 0.00 0.00 0.00 0.00 0.00 0.00 0.00 0.00 0.00 0.00 0.00 0.00 0.00 0.00 0.00 0.00 0.00 0.00 0.00 0.00
0.00 0.00 0.00 0.00 0.00 0.00 0.00 0.00 0.00 0.00 0.00 0.00 0.00 0.00 0.00 0.00 0.00 0.00 0.00 0.00 0.00 0.00 0.00 0.00 0.00 0.00 0.00 0.00 0.00 0.00 0.00 0.00 0.00 0.00 0.00 0.00 0.00 0.00 0.00 0.00 0.00 0.00 0.00 0.00
0.00 0.00 0.00 0.00 0.00 0.00 0.00 0.00 0.00 0.00 0.00 0.00 0.00 0.00 0.00 0.00 0.00 0.00 0.00 0.00 0.00 0.00 0.00 0.00 0.00 0.00 0.00 0.00 0.00 0.00 0.00 0.00 0.00 0.00 0.00 0.00 0.00 0.00 0.00 0.00 0.00 0.00 0.00 0.00
0.00 0.00 0.00 0.00 0.00 0.00 0.00 0.00 0.00 0.00 0.00 0.00 0.00 0.00 0.00 0.00 0.00 0.00 0.00 0.00 0.00 0.00 0.00 0.00 0.00 0.00 0.00 0.00 0.00 0.00 0.00 0.00 0.00 0.00 0.00 0.00 0.00 0.00 0.00 0.00 0.00 0.00 0.00 0.00
0.00 0.00 0.00 0.00 0.00 0.00 0.00 0.00 0.00 0.00 0.00 0.00 0.00 0.00 0.00 0.00 0.00 0.00 0.00 0.00 0.00 0.00 0.00 0.00 0.00 0.00 0.00 0.00 0.00 0.00 0.00 0.00 0.00 0.00 0.00 0.00 0.00 0.00 0.00 0.00 0.00 0.00 0.00 0.00
0.00 0.01 0.00 0.00 0.00 0.00 0.00 0.00 0.00 0.00 0.00 0.00 0.00 0.00 0.00 0.00 0.00 0.00 0.00 0.00 0.00 0.00 0.00 0.00 0.00 0.00 0.00 0.00 0.00 0.00 0.00 0.00 0.00 0.00 0.00 0.00 0.00 0.00 0.00 0.00 0.00 0.00 0.00 0.00
0.00 0.00 0.00 0.00 0.00 0.00 0.00 0.00 0.00 0.00 0.00 0.00 0.00 0.00 0.00 0.00 0.00 0.00 0.00 0.00 0.00 0.00 0.00 0.00 0.00 0.00 0.00 0.00 0.00 0.00 0.00 0.00 0.00 0.00 0.00 0.00 0.00 0.00 0.00 0.00 0.00 0.00 0.00 0.00
0.00 0.00 0.00 0.00 0.00 0.00 0.00 0.00 0.00 0.00 0.00 0.00 0.00 0.00 0.00 0.00 0.00 0.00 0.00 0.00 0.00 0.00 0.00 0.00 0.00 0.00 0.00 0.00 0.00 0.00 0.00 0.00 0.00 0.00 0.00 0.00 0.00 0.00 0.00 0.00 0.00 0.00 0.00 0.00
0.00 0.00 0.00 0.00 0.00 0.00 0.00 0.00 0.00 0.00 0.00 0.00 0.00 0.00 0.00 0.00 0.00 0.00 0.00 0.00 0.00 0.00 0.00 0.00 0.00 0.00 0.00 0.00 0.00 0.00 0.00 0.00 0.00 0.00 0.00 0.00 0.00 0.00 0.00 0.00 0.00 0.00 0.00 0.00
0.00 0.00 0.01 0.01 0.02 0.00 0.00 0.00 0.00 0.00 0.00 0.00 0.00 0.00 0.00 0.00 0.00 0.00 0.00 0.00 0.00 0.00 0.00 0.00 0.00 0.00 0.00 0.00 0.00 0.00 0.00 0.00 0.00 0.00 0.00 0.00 0.00 0.00 0.00 0.00 0.00 0.00 0.00 0.00
0.00 0.01 0.06 0.09 0.08 0.02 0.00 0.00 0.00 0.00 0.00 0.00 0.00 0.00 0.00 0.00 0.00 0.00 0.00 0.00 0.00 0.00 0.00 0.00 0.00 0.00 0.00 0.00 0.00 0.00 0.00 0.00 0.00 0.00 0.00 0.00 0.00 0.00 0.00 0.00 0.00 0.00 0.00 0.00
0.03 0.08 0.13 0.08 0.04 0.00 0.00 0.00 0.00 0.00 0.00 0.00 0.00 0.00 0.00 0.00 0.00 0.00 0.00 0.00 0.00 0.00 0.00 0.00 0.00 0.00 0.00 0.00 0.00 0.00 0.00 0.00 0.00 0.00 0.00 0.00 0.00 0.00 0.00 0.00 0.00 0.00 0.00 0.00
0.01 0.02 0.05 0.07 0.05 0.01 0.00 0.00 0.00 0.00 0.00 0.00 0.00 0.00 0.00 0.00 0.00 0.00 0.00 0.00 0.00 0.00 0.00 0.00 0.00 0.00 0.00 0.00 0.00 0.00 0.00 0.00 0.00 0.00 0.00 0.00 0.00 0.00 0.00 0.00 0.00 0.00 0.00 0.00
0.02 0.00 0.00 0.00 0.00 0.00 0.00 0.00 0.00 0.00 0.00 0.00 0.00 0.00 0.00 0.00 0.00 0.00 0.00 0.00 0.00 0.00 0.00 0.00 0.00 0.00 0.00 0.00 0.00 0.00 0.00 0.00 0.00 0.00 0.00 0.00 0.00 0.00 0.00 0.00 0.00 0.00 0.00 0.00
0.00 0.00 0.01 0.00 0.00 0.00 0.00 0.00 0.00 0.00 0.00 0.00 0.00 0.00 0.00 0.00 0.00 0.00 0.00 0.00 0.00 0.00 0.00 0.00 0.00 0.00 0.00 0.00 0.00 0.00 0.00 0.00 0.00 0.00 0.00 0.00 0.00 0.00 0.00 0.00 0.00 0.00 0.00 0.00
0.00 0.00 0.00 0.00 0.00 0.00 0.00 0.00 0.00 0.00 0.00 0.00 0.00 0.00 0.00 0.00 0.00 0.00 0.00 0.00 0.00 0.00 0.00 0.00 0.00 0.00 0.00 0.00 0.00 0.00 0.00 0.00 0.00 0.00 0.00 0.00 0.00 0.00 0.00 0.00 0.00 0.00 0.00 0.00
0.00 0.00 0.00 0.00 0.00 0.00 0.00 0.00 0.00 0.00 0.00 0.00 0.00 0.00 0.00 0.00 0.00 0.00 0.00 0.00 0.00 0.00 0.00 0.00 0.00 0.00 0.00 0.00 0.00 0.00 0.00 0.00 0.00 0.00 0.00 0.00 0.00 0.00 0.00 0.00 0.00 0.00 0.00 0.00
MSLP
1012.11 1012.15 1012.03 1012.06 1012.37 1012.09 1012.07 1012.62 1012.95 1013.68 1014.24 1014.57 1014.70 1014.62 1014.40 1014.38 1014.81 1014.68 1014.80 1014.95 1015.21 1015.54 1015.95 1016.16 1016.44 1016.51 1016.83 1017.04 1017.24 1017.48 1018.04 1018.62 1019.48 1020.38 1021.13 1021.45 1021.64 1021.98 1022.26 1022.43 1022.68 1022.88 1023.08 1023.27
1012.23 1011.67 1011.81 1012.05 1012.08 1012.09 1011.97 1012.40 1013.28 1014.31 1014.64 1015.08 1014.78 1014.68 1014.28 1014.23 1014.52 1014.69 1014.99 1014.88 1015.24 1015.72 1016.38 1016.72 1017.06 1017.09 1017.48 1017.67 1017.67 1017.65 1017.70 1018.12 1018.76 1019.50 1020.43 1020.96 1021.37 1021.75 1021.84 1022.21 1022.48 1022.71 1022.92 1023.09
1011.47 1011.24 1011.54 1011.78 1011.86 1012.08 1012.22 1012.35 1013.20 1014.06 1015.19 1015.49 1015.36 1014.95 1014.48 1014.26 1014.42 1014.77 1015.19 1015.44 1015.74 1016.12 1016.69 1017.29 1017.53 1017.88 1017.95 1018.06 1018.16 1017.94 1017.95 1018.03 1018.41 1019.07 1019.97 1020.79 1021.27 1021.54 1021.94 1022.25 1022.50 1022.58 1022.73 1022.87
1011.76 1011.69 1011.93 1012.07 1012.37 1012.35 1012.72 1012.64 1013.07 1014.38 1015.43 1015.84 1015.34 1015.02 1014.19 1014.32 1014.92 1015.40 1015.83 1016.12 1016.44 1016.70 1017.16 1017.45 1017.85 1018.46 1018.52 1018.69 1018.53 1018.25 1018.12 1018.27 1018.44 1018.97 1019.81 1020.53 1020.99 1021.35 1021.62 1021.71 1022.02 1022.29 1022.48 1022.69
1012.11 1012.23 1012.39 1012.60 1012.46 1012.75 1013.46 1013.33 1014.02 1014.83 1015.63 1015.90 1016.00 1015.89 1014.71 1014.61 1015.32 1015.67 1015.91 1016.32 1016.82 1017.14 1017.63 1018.00 1018.58 1018.77 1019.00 1018.96 1018.68 1018.53 1018.56 1018.57 1018.81 1019.01 1019.53 1020.28 1020.84 1021.34 1021.55 1021.87 1021.96 1022.21 1022.34 1022.54
1012.45 1012.56 1012.72 1012.69 1013.15 1013.21 1013.94 1014.51 1015.20 1015.58 1016.44 1016.93 1016.20 1016.09 1015.13 1014.89 1014.52 1015.33 1015.88 1016.65 1017.21 1017.73 1018.46 1018.44 1018.98 1019.32 1019.26 1019.48 1019.22 1018.91 1018.98 1019.28 1019.45 1019.66 1019.88 1020.33 1020.90 1021.50 1021.83 1022.26 1022.35 1022.54 1022.77 1022.89
1012.78 1013.13 1013.43 1013.29 1013.76 1014.24 1014.24 1014.91 1016.46 1017.47 1017.79 1017.69 1016.92 1016.47 1014.91 1014.28 1014.07 1014.67 1015.70 1016.85 1017.60 1017.86 1018.87 1018.88 1019.48 1019.66 1019.97 1020.15 1019.89 1019.87 1019.92 1020.00 1020.17 1020.49 1020.80 1021.05 1021.37 1021.65 1022.19 1022.61 1022.91 1023.00 1023.19 1023.51
1012.04 1013.78 1013.39 1013.22 1013.30 1013.76 1014.32 1014.40 1015.70 1017.35 1018.48 1018.60 1017.91 1016.40 1014.48 1014.36 1014.19 1014.61 1015.35 1016.55 1017.60 1018.07 1018.84 1019.17 1019.81 1019.80 1020.37 1020.66 1020.51 1020.41 1020.65 1020.80 1020.93 1021.18 1021.70 1022.13 1022.52 1022.86 1023.14 1023.27 1023.71 1023.95 1024.26 1024.36
1011.15 1012.61 1013.18 1013.52 1013.59 1013.73 1014.46 1014.56 1015.04 1016.89 1018.66 1018.88 1017.58 1016.00 1015.13 1014.89 1014.91 1015.07 1015.69 1016.81 1017.65 1018.35 1018.96 1019.47 1020.04 1020.21 1020.78 1021.19 1021.28 1021.11 1021.41 1021.64 1021.59 1022.04 1022.41 1022.85 1023.25 1023.65 1023.99 1024.15 1024.26 1024.51 1024.74 1024.78
1010.00 1012.56 1014.00 1014.32 1014.06 1014.00 1013.73 1013.74 1015.11 1016.03 1018.15 1018.69 1017.15 1015.89 1014.71 1015.25 1014.80 1015.32 1015.92 1016.62 1017.65 1018.45 1018.94 1019.64 1020.16 1020.59 1021.17 1021.49 1021.69 1021.84 1022.20 1022.38 1022.47 1022.80 1023.24 1023.48 1024.07 1024.40 1024.77 1024.92 1025.14 1025.22 1025.22 1025.28
1010.20 1011.76 1014.93 1014.79 1014.35 1013.60 1013.97 1013.68 1014.35 1014.99 1016.24 1016.77 1016.87 1015.29 1013.25 1013.06 1013.52 1014.57 1015.61 1016.35 1017.45 1018.42 1019.10 1019.79 1020.29 1020.89 1021.29 1021.73 1022.22 1022.53 1022.83 1023.14 1023.25 1023.44 1023.79 1024.09 1024.55 1025.01 1025.36 1025.42 1025.73 1025.92 1025.83 1025.84
1010.73 1012.25 1014.34 1014.56 1014.30 1013.57 1013.37 1013.33 1013.56 1014.45 1015.40 1015.97 1015.91 1014.27 1013.04 1012.47 1013.02 1014.03 1015.00 1016.04 1017.23 1018.18 1018.86 1019.53 1020.26 1021.04 1021.68 1021.93 1022.40 1022.98 1023.38 1023.68 1023.89 1023.98 1024.26 1024.72 1025.17 1025.54 1025.93 1026.07 1026.25 1026.35 1026.40 1026.19
1010.52 1011.97 1013.99 1014.75 1014.44 1014.05 1013.85 1013.44 1012.99 1013.38 1014.42 1015.04 1015.52 1013.86 1012.95 1012.37 1012.84 1013.66 1014.65 1015.79 1016.70 1017.73 1018.68 1019.64 1020.35 1020.98 1021.72 1022.19 1022.65 1023.26 1023.83 1024.15 1024.37 1024.55 1024.81 1025.38 1025.98 1026.15 1026.40 1026.64 1026.72 1026.70 1026.69 1026.64
1010.13 1011.54 1011.92 1012.40 1012.35 1012.66 1013.59 1012.88 1012.80 1013.49 1014.18 1013.92 1013.57 1012.75 1012.73 1012.31 1012.65 1013.35 1014.24 1015.26 1016.46 1017.36 1018.27 1019.44 1020.24 1020.81 1021.65 1022.36 1022.92 1023.60 1024.26 1024.35 1024.50 1024.74 1025.33 1025.91 1026.54 1026.75 1026.90 1027.10 1027.10 1027.10 1027.11 1026.91
1010.76 1012.11 1012.26 1011.58 1011.50 1011.87 1012.08 1012.15 1012.60 1013.13 1012.31 1012.88 1011.15 1011.45 1011.55 1011.68 1012.09 1012.48 1013.30 1015.09 1016.18 1016.93 1017.97 1018.85 1019.66 1020.68 1021.67 1022.38 1023.09 1023.85 1024.46 1024.59 1024.76 1025.21 1025.82 1026.54 1026.91 1026.92 1027.06 1027.20 1027.27 1027.42 1027.40 1027.36
1011.30 1012.04 1012.41 1012.27 1012.39 1012.43 1011.99 1011.63 1011.62 1011.54 1011.27 1011.41 1010.42 1010.38 1010.09 1010.62 1011.43 1012.55 1013.27 1014.29 1015.11 1016.16 1017.08 1018.19 1019.11 1020.34 1021.36 1022.16 1022.98 1023.83 1024.45 1024.84 1025.00 1025.64 1026.40 1026.95 1027.04 1026.93 1027.26 1027.55 1027.82 1027.79 1027.63 1027.62
1011.87 1012.32 1012.98 1013.34 1013.20 1013.01 1012.77 1010.64 1010.66 1010.76 1010.49 1010.13 1009.99 1008.30 1009.74 1010.37 1010.86 1011.55 1012.71 1013.48 1014.08 1015.10 1016.25 1017.50 1018.69 1019.87 1021.03 1021.95 1022.82 1023.64 1024.26 1024.77 1025.44 1026.00 1026.58 1027.01 1027.27 1027.56 1027.90 1027.93 1027.88 1027.75 1027.67 1027.57
1011.91 1012.72 1013.34 1014.08 1013.97 1013.44 1010.33 1009.91 1009.78 1009.96 1009.38 1009.42 1008.93 1008.59 1009.43 1009.83 1010.16 1010.63 1011.15 1011.82 1013.27 1014.62 1015.91 1017.21 1018.45 1019.81 1020.89 1021.83 1022.90 1023.61 1024.31 1025.02 1025.78 1026.41 1026.89 1027.16 1027.57 1027.99 1028.07 1027.92 1027.79 1027.68 1027.69 1027.42
1011.57 1012.56 1013.59 1013.82 1013.74 1012.24 1010.39 1010.11 1009.69 1009.62 1008.42 1008.93 1008.63 1008.59 1009.16 1009.52 1010.12 1010.40 1010.54 1011.50 1012.52 1013.64 1015.21 1016.61 1017.99 1019.41 1020.68 1021.67 1022.78 1023.59 1024.47 1025.26 1025.98 1026.69 1026.95 1027.38 1027.71 1027.81 1027.98 1028.09 1027.78 1027.64 1027.59 1027.23
1012.00 1012.18 1012.99 1013.63 1013.61 1012.39 1009.39 1009.37 1009.39 1009.66 1008.53 1007.94 1008.33 1008.47 1009.03 1009.69 1010.51 1009.48 1010.52 1011.11 1012.43 1013.74 1014.99 1016.38 1018.10 1019.49 1020.56 1021.74 1022.65 1023.64 1024.65 1025.50 1026.10 1026.52 1027.26 1027.49 1027.69 1027.86 1027.99 1028.01 1027.80 1027.73 1027.40 1027.23
1012.04 1012.49 1012.23 1012.63 1012.76 1011.14 1009.76 1009.33 1009.05 1010.33 1008.64 1007.80 1008.14 1007.96 1008.56 1009.33 1008.79 1009.33 1010.54 1011.70 1012.63 1013.93 1015.47 1016.89 1018.38 1019.59 1020.75 1021.81 1022.76 1023.88 1024.66 1025.44 1026.32 1027.00 1027.24 1027.61 1027.89 1027.89 1027.78 1027.85 1027.75 1027.53 1027.32 1027.09
1010.70 1011.17 1011.66 1012.08 1012.04 1011.07 1009.72 1010.17 1009.82 1009.45 1009.23 1009.15 1008.99 1008.87 1009.35 1009.96 1010.34 1010.78 1011.42 1012.46 1013.51 1014.57 1015.93 1017.08 1018.60 1020.11 1021.22 1022.07 1022.88 1024.00 1024.92 1026.09 1026.37 1026.91 1027.37 1027.69 1027.79 1027.71 1027.63 1027.73 1027.75 1027.56 1027.24 1027.10
1011.05 1010.42 1010.55 1010.70 1010.25 1009.77 1009.87 1009.87 1009.80 1009.83 1009.97 1010.04 1009.95 1009.95 1010.29 1010.94 1011.68 1012.17 1013.09 1013.86 1014.67 1015.36 1016.59 1017.74 1018.77 1020.41 1021.71 1022.47 1023.03 1024.35 1025.47 1026.03 1026.69 1027.23 1027.59 1027.52 1027.54 1027.64 1027.74 1027.85 1027.76 1027.67 1027.15 1027.09
1011.08 1010.71 1010.73 1010.52 1010.41 1010.24 1010.24 1010.10 1010.22 1010.48 1010.75 1010.76 1010.73 1010.79 1011.04 1011.83 1012.51 1013.33 1014.16 1015.04 1015.83 1016.60 1017.47 1018.52 1019.57 1020.86 1022.15 1023.11 1024.08 1024.82 1025.70 1026.43 1026.90 1027.34 1027.56 1027.49 1027.64 1027.65 1027.65 1027.68 1027.56 1027.29 1027.16 1026.82
1010.89 1010.78 1010.78 1010.61 1010.38 1010.38 1010.36 1010.26 1010.51 1010.80 1011.12 1011.18 1011.25 1011.42 1011.71 1012.25 1013.20 1013.82 1014.85 1015.76 1016.48 1017.27 1018.31 1019.12 1020.13 1021.34 1022.72 1024.01 1025.02 1025.47 1026.05 1026.31 1026.91 1027.43 1027.66 1027.73 1027.65 1027.92 1027.92 1027.54 1027.03 1026.53 1026.34 1026.18
1010.82 1010.38 1010.40 1010.16 1009.76 1009.70 1010.03 1010.07 1010.36 1011.08 1011.53 1011.64 1011.77 1012.20 1012.62 1013.02 1013.71 1014.53 1015.62 1016.17 1016.84 1017.95 1018.84 1019.73 1020.82 1022.03 1023.39 1024.48 1025.39 1025.94 1026.24 1026.63 1027.27 1027.69 1028.04 1028.25 1028.38 1028.16 1027.79 1027.44 1026.75 1026.33 1025.66 1025.23
Thickness
5619 5618 5620 5634 5643 5655 5663 5658 5661 5666 5671 5671 5669 5678 5685 5689 5690 5698 5703 5704 5708 5709 5711 5713 5715 5718 5715 5716 5716 5716 5712 5709 5703 5694 5687 5685 5684 5682 5678 5676 5672 5670 5668 5665
5608 5613 5634 5641 5645 5649 5656 5649 5650 5646 5660 5659 5665 5667 5683 5690 5692 5696 5699 5707 5707 5707 5704 5705 5707 5710 5706 5705 5708 5710 5710 5709 5705 5698 5690 5685 5681 5677 5675 5672 5669 5666 5663 5662
5612 5630 5634 5634 5638 5641 5648 5651 5647 5652 5647 5654 5659 5658 5671 5686 5693 5691 5694 5697 5700 5703 5699 5697 5699 5698 5699 5699 5699 5703 5703 5704 5701 5697 5688 5681 5677 5673 5668 5665 5662 5660 5658 5656
5611 5619 5622 5623 5626 5639 5631 5654 5650 5638 5637 5628 5654 5630 5668 5670 5673 5678 5682 5683 5687 5691 5694 5694 5693 5688 5690 5689 5692 5695 5696 5696 5695 5692 5683 5677 5673 5668 5666 5665 5661 5656 5653 5650
5600 5602 5609 5614 5627 5635 5628 5641 5639 5640 5637 5640 5641 5632 5665 5666 5665 5670 5677 5681 5682 5683 5683 5684 5681 5683 5681 5683 5687 5687 5687 5687 5686 5685 5681 5673 5667 5663 5661 5657 5655 5651 5647 5643
5593 5605 5612 5619 5618 5628 5624 5623 5626 5632 5624 5605 5635 5630 5643 5650 5671 5671 5676 5675 5674 5674 5670 5675 5674 5672 5675 5673 5676 5679 5679 5676 5674 5673 5670 5667 5661 5655 5652 5647 5645 5642 5637 5634
5584 5589 5598 5608 5601 5609 5616 5613 5580 5581 5576 5588 5606 5623 5645 5668 5682 5678 5671 5667 5666 5668 5662 5666 5663 5662 5662 5661 5664 5666 5666 5664 5662 5659 5656 5653 5650 5648 5642 5638 5634 5632 5628 5623
5580 5571 5588 5603 5608 5603 5605 5613 5581 5569 5572 5593 5594 5607 5644 5664 5677 5676 5672 5664 5661 5661 5658 5657 5653 5654 5652 5650 5652 5654 5652 5650 5648 5645 5641 5637 5634 5630 5626 5624 5619 5615 5610 5608
5587 5581 5592 5598 5605 5608 5595 5592 5612 5579 5534 5568 5595 5626 5643 5651 5657 5661 5660 5656 5653 5652 5648 5646 5644 5644 5641 5638 5639 5641 5638 5636 5636 5631 5627 5623 5620 5615 5611 5609 5607 5603 5598 5593
5608 5568 5576 5583 5592 5597 5602 5615 5586 5588 5554 5561 5597 5617 5632 5631 5645 5651 5651 5648 5644 5641 5640 5637 5635 5633 5629 5627 5626 5626 5623 5621 5620 5617 5613 5610 5605 5601 5597 5594 5590 5587 5584 5581
5599 5582 5558 5571 5576 5591 5589 5593 5600 5602 5590 5568 5567 5597 5654 5651 5653 5650 5644 5643 5639 5633 5629 5627 5624 5622 5620 5617 5613 5611 5609 5607 5606 5603 5600 5597 5592 5588 5583 5581 5576 5571 5569 5565
5584 5567 5544 5566 5574 5582 5589 5603 5601 5586 5586 5584 5579 5601 5643 5654 5652 5646 5642 5639 5630 5626 5624 5620 5615 5611 5608 5606 5602 5598 5595 5593 5591 5590 5587 5583 5578 5573 5568 5564 5559 5555 5551 5549
5572 5554 5527 5546 5562 5568 5576 5590 5602 5607 5584 5570 5565 5597 5629 5642 5641 5643 5637 5632 5626 5622 5616 5609 5604 5601 5597 5594 5590 5586 5581 5578 5576 5575 5572 5566 5559 5556 5551 5547 5544 5540 5537 5534
5573 5556 5561 5563 5580 5582 5570 5585 5591 5591 5559 5578 5583 5622 5621 5630 5633 5632 5630 5624 5618 5614 5609 5601 5595 5593 5588 5583 5577 5571 5566 5566 5564 5562 5555 5549 5542 5539 5536 5531 5528 5525 5521 5519
5557 5539 5556 5577 5591 5582 5580 5581 5580 5574 5599 5584 5622 5615 5624 5621 5625 5628 5624 5612 5608 5606 5602 5597 5591 5583 5574 5570 5564 5558 5553 5552 5549 5545 5539 5531 5527 5525 5522 5518 5514 5510 5507 5503
5545 5533 5551 5542 5565 5564 5566 5575 5581 5585 5595 5595 5611 5606 5632 5624 5621 5612 5615 5610 5606 5601 5598 5592 5583 5572 5566 5560 5552 5545 5539 5536 5534 5528 5521 5515 5513 5512 5506 5502 5497 5494 5493 5489
5532 5527 5527 5536 5533 5537 5527 5565 5575 5585 5591 5597 5592 5631 5624 5611 5613 5612 5607 5604 5601 5597 5591 5582 5572 5563 5555 5547 5541 5533 5527 5522 5517 5512 5506 5501 5498 5494 5489 5486 5483 5482 5479 5476
5508 5509 5508 5498 5506 5498 5572 5580 5584 5578 5590 5594 5604 5617 5605 5604 5609 5606 5610 5609 5598 5588 5580 5570 5560 5549 5541 5533 5525 5519 5513 5507 5501 5496 5490 5487 5482 5477 5474 5473 5470 5469 5466 5463
5519 5506 5502 5501 5485 5523 5557 5555 5566 5563 5583 5589 5595 5605 5598 5598 5590 5590 5603 5598 5593 5585 5572 5560 5549 5538 5528 5521 5513 5505 5498 5492 5486 5480 5477 5471 5467 5464 5460 5457 5456 5454 5451 5448
5498 5512 5513 5496 5511 5518 5568 5561 5559 5559 5558 5586 5583 5590 5582 5575 5566 5595 5588 5589 5579 5568 5558 5545 5532 5522 5515 5505 5499 5491 5484 5477 5472 5467 5460 5456 5452 5449 5446 5444 5442 5438 5435 5432
5494 5488 5499 5503 5502 5508 5531 5537 5552 5529 5570 5551 5569 5580 5574 5575 5590 5586 5568 5561 5559 5550 5537 5527 5517 5509 5500 5491 5485 5477 5471 5465 5456 5448 5446 5442 5438 5435 5434 5430 5426 5422 5417 5413
5502 5500 5498 5497 5503 5517 5518 5523 5541 5546 5536 5540 5550 5564 5557 5550 5556 5554 5553 5544 5536 5529 5520 5513 5502 5491 5482 5478 5473 5464 5456 5445 5441 5436 5431 5427 5424 5423 5420 5413 5406 5401 5397 5393
5481 5492 5496 5504 5508 5512 5512 5517 5517 5521 5524 5527 5533 5539 5536 5530 5531 5530 5525 5520 5515 5512 5501 5495 5488 5476 5467 5462 5459 5449 5437 5432 5425 5420 5415 5413 5411 5406 5400 5393 5388 5383 5377 5372
5467 5470 5474 5490 5494 5499 5499 5501 5500 5503 5508 5510 5513 5514 5513 5511 5510 5506 5501 5495 5491 5486 5481 5474 5467 5458 5449 5442 5436 5429 5421 5415 5409 5404 5402 5398 5392 5385 5380 5375 5371 5365 5358 5354
5448 5453 5453 5459 5476 5478 5479 5483 5489 5490 5488 5492 5495 5496 5497 5493 5487 5486 5481 5476 5472 5466 5459 5456 5450 5442 5432 5422 5414 5410 5404 5399 5393 5386 5382 5377 5373 5366 5361 5358 5355 5351 5344 5337
5433 5449 5454 5455 5475 5482 5483 5481 5474 5472 5471 5471 5476 5478 5478 5477 5474 5468 5461 5457 5454 5447 5441 5437 5429 5421 5410 5401 5394 5387 5383 5378 5372 5368 5363 5357 5352 5348 5345 5344 5341 5332 5331 5326